This demonstration page uses our WeatherBlox Daily Observations layout. Learn more.

Left ArrowRight Arrow

44.8408, -93.29828

Hourly Observations for March 14, 2015

Temp ( °F °C ) Dew Point ( °F °C ) Humidity (%) Winds ( mph kmh ) Pressure ( in mb ) Visibility ( mi km ) Precip ( " mm )
12:53 am 00:53 Clear 40 4.4 32 0 73 73 NW 10 17 30.18 1022 10 16 0.00 0.00
1:53 am 01:53 Clear 39 3.9 32 0 76 76 NW 7 11 30.19 1022 10 16 0.00 0.00
2:53 am 02:53 Clear 36 2.2 31 -0.6 82 82 WNW 3 6 30.20 1023 10 16 0.00 0.00
3:53 am 03:53 Clear 36 2.2 31 -0.6 82 82 WSW 6 9 30.19 1022 10 16 0.00 0.00
4:53 am 04:53 Clear 34 1.1 30 -1.1 85 85 W 3 6 30.19 1022 10 16 0.00 0.00
5:53 am 05:53 Clear 34 1.1 30 -1.1 85 85 W 5 7 30.19 1022 10 16 0.00 0.00
6:53 am 06:53 Clear 35 1.7 31 -0.6 85 85 WSW 5 7 30.19 1022 10 16 0.00 0.00
7:53 am 07:53 Sunny 35 1.7 31 -0.6 85 85 WNW 3 6 30.20 1023 8 13 0.00 0.00
8:53 am 08:53 Sunny 40 4.4 34 1.1 79 79 NW 7 11 30.20 1023 9 14 0.00 0.00
9:53 am 09:53 Sunny 44 6.7 35 1.7 71 71 NNW 8 13 30.21 1023 10 16 0.00 0.00
10:53 am 10:53 Sunny 48 8.9 35 1.7 61 61 WNW 9 15 30.22 1023 10 16 0.00 0.00
11:53 am 11:53 Sunny 52 11.1 34 1.1 50 50 NNW 9 15 30.21 1023 10 16 0.00 0.00
12:53 pm 12:53 Sunny 55 12.8 34 1.1 45 45 NNW 13 20 30.20 1023 10 16 0.00 0.00
1:53 pm 13:53 Sunny 57 13.9 33 0.6 41 41 W 8 13 30.19 1022 10 16 0.00 0.00
2:53 pm 14:53 Sunny 59 15 32 0 36 36 NW 14 22 30.16 1021 10 16 0.00 0.00
3:53 pm 15:53 Sunny 60 15.6 32 0 35 35 WNW 12 19 30.14 1021 10 16 0.00 0.00
4:53 pm 16:53 Sunny 61 16.1 30 -1.1 31 31 NW 5 7 30.12 1020 10 16 0.00 0.00
5:53 pm 17:53 Sunny 60 15.6 30 -1.1 32 32 WNW 8 13 30.13 1020 10 16 0.00 0.00
6:53 pm 18:53 Mostly Sunny 58 14.4 30 -1.1 35 35 W 10 17 30.14 1021 10 16 0.00 0.00
7:53 pm 19:53 Mostly Clear 56 13.3 30 -1.1 37 37 WSW 5 7 30.14 1021 10 16 0.00 0.00
8:53 pm 20:53 Mostly Clear 53 11.7 31 -0.6 43 43 SSW 5 7 30.14 1021 10 16 0.00 0.00
9:53 pm 21:53 Mostly Clear 50 10 31 -0.6 48 48 SW 5 7 30.13 1020 10 16 0.00 0.00
10:53 pm 22:53 Mostly Clear 49 9.4 31 -0.6 50 50 S 3 6 30.14 1021 10 16 0.00 0.00
11:53 pm 23:53 Clear 43 6.1 30 -1.1 60 60 ESE 6 9 30.12 1020 10 16 0.00 0.00

Powered by AerisWeather